Central Victoria, Mexico

12:08 PM on April 27, 2017 (GMT +0000)
Central Victoria

Weather History for 76649 - January, 2014

Change the Weather History Date:

Saturday, January 18, 2014

  Actual Average Record
Temperature  
Mean Temperature 70 °F -  
Max Temperature 73 °F 81 °F - ()
Min Temperature 66 °F 69 °F - ()
Cooling Degree Days 4    
Growing Degree Days 20 (Base 50)    
Moisture  
Dew Point 59 °F    
Average Humidity 70    
Maximum Humidity 83    
Minimum Humidity 53    
Precipitation  
Precipitation 0.00 in - - ()
Sea Level Pressure  
Sea Level Pressure 30.15 in    
Wind  
Wind Speed 9 mph ()    
Max Wind Speed 14 mph    
Max Gust Speed -    
Visibility 7.5 miles    
Events      
T = Trace of Precipitation, MM = Missing Value Source: Averaged Metar Reports

Daily Weather History Graph

Daily Weather History Graph

Search for Another Location

Airport or City:

Trip Planner

Search our weather history database for the weather conditions in past years. The results will help you decide how hot, cold, wet, or windy it might be!

Date:

Astronomy

Jan. 18, 2014 Rise Set
Actual Time 12:26 PM UTC 11:30 PM UTC
Civil Twilight 12:02 PM UTC 11:53 PM UTC
Nautical Twilight 11:35 AM UTC 12:20 AM UTC
Astronomical Twilight 11:09 AM UTC 12:47 AM UTC
Moon 12:56 AM UTC (1/18) 1:48 PM UTC (1/18)
Length of Visible Light 11h 50m
Length of Day
11h 03m
Waning Gibbous, 95% of the Moon is Illuminated
Jan 18
Waning Gibbous
Jan 24
Last Quarter
Jan 30
New
Feb 6
First Quarter
Feb 14
Full

Hourly Weather History & Observations

Time (GMT) Temp. Dew Point Humidity Pressure Visibility Wind Dir Wind Speed Gust Speed Precip Events Conditions
12:44 AM 68.0 °F 57.2 °F 68% 30.13 in 7.0 mi NNE 9.2 mph - N/A   Scattered Clouds
1:40 AM 68.0 °F 59.0 °F 73% 30.14 in 7.0 mi North 9.2 mph - N/A   Partly Cloudy
2:41 AM 68.0 °F 60.8 °F 78% 30.19 in 7.0 mi North 11.5 mph - N/A   Partly Cloudy
3:53 AM 69.8 °F 59.0 °F 68% 30.17 in 7.0 mi North 9.2 mph - N/A   Partly Cloudy
4:48 AM 68.0 °F 59.0 °F 73% 30.16 in 7.0 mi North 6.9 mph - N/A   Partly Cloudy
5:48 AM 68.0 °F 62.6 °F 83% 30.12 in 7.0 mi North 9.2 mph - N/A   Partly Cloudy
6:41 AM 68.0 °F 60.8 °F 78% 30.14 in 7.0 mi North 9.2 mph - N/A   Partly Cloudy
7:44 AM 68.0 °F 60.8 °F 78% 30.13 in 7.0 mi North 10.4 mph - N/A   Scattered Clouds
8:48 AM 68.0 °F 60.8 °F 78% 30.16 in 7.0 mi North 10.4 mph - N/A   Scattered Clouds
9:44 AM 66.2 °F 59.0 °F 78% 30.13 in 7.0 mi North 10.4 mph - N/A   Scattered Clouds
10:49 AM 66.2 °F 59.0 °F 78% 30.14 in 7.0 mi North 12.7 mph - N/A   Partly Cloudy
11:49 AM 68.0 °F 59.0 °F 73% 30.15 in 7.0 mi North 10.4 mph - N/A   Partly Cloudy
12:41 PM 68.0 °F 59.0 °F 73% 30.16 in 7.0 mi North 10.4 mph - N/A   Scattered Clouds
1:44 PM 68.0 °F 59.0 °F 73% 30.18 in 8.0 mi North 9.2 mph - N/A   Scattered Clouds
2:42 PM 69.8 °F 60.8 °F 73% 30.23 in 8.0 mi North 10.4 mph - N/A   Scattered Clouds
3:40 PM 71.6 °F 57.2 °F 60% 30.22 in 8.0 mi NE 11.5 mph - N/A   Scattered Clouds
4:45 PM 73.4 °F 55.4 °F 53% 30.20 in 8.0 mi ENE 8.1 mph - N/A   Scattered Clouds
5:42 PM 73.4 °F 57.2 °F 57% 30.16 in 8.0 mi NE 6.9 mph - N/A   Scattered Clouds
6:43 PM 71.6 °F 57.2 °F 60% 30.15 in 8.0 mi NE 13.8 mph - N/A   Mostly Cloudy
7:45 PM 73.4 °F 59.0 °F 61% 30.13 in 8.0 mi NE 10.4 mph - N/A   Mostly Cloudy
8:52 PM 73.4 °F 57.2 °F 57% 30.15 in 8.0 mi NE 11.5 mph - N/A   Mostly Cloudy
9:49 PM 71.6 °F 59.0 °F 64% 30.11 in 8.0 mi ENE 11.5 mph - N/A   Scattered Clouds
10:44 PM 69.8 °F 59.0 °F 68% 30.12 in 8.0 mi East 4.6 mph - N/A   Scattered Clouds
11:43 PM 68.0 °F 57.2 °F 68% 30.11 in 8.0 mi East 5.8 mph - N/A   Mostly Cloudy